• In Deutschland
  • Länderverzeichnis
  • Für 7 Tage
  • Wassertemperatur
  • Satellitenkarten
  • Wetterkarte
  • Widgets
  • user-avatar
    Anmelden

    Stündliche Wetter Friedrichshafen

    Heute, 20 Oktober, Freitag

    Zeit Temperatur Niederschläge Wind Luftdruck Luftfeuchtigkeit
    00:00 +13°C° 0 mm 2 m/S 725 mmHg 72%
    01:00 +13°C° 0 mm 1 m/S 725 mmHg 72%
    02:00 +12°C° 0 mm 2 m/S 725 mmHg 74%
    03:00 +12°C° 0 mm 2 m/S 725 mmHg 75%
    04:00 +12°C° 0 mm 2 m/S 725 mmHg 77%
    05:00 +12°C° 0 mm 2 m/S 726 mmHg 77%
    06:00 +12°C° 0 mm 2 m/S 726 mmHg 76%
    07:00 +12°C° 0 mm 2 m/S 726 mmHg 76%
    08:00 +14°C° 0 mm 2 m/S 726 mmHg 71%
    09:00 +16°C° 0 mm 1 m/S 726 mmHg 65%
    10:00 +19°C° 0 mm 1 m/S 726 mmHg 60%
    11:00 +19°C° 0 mm 2 m/S 727 mmHg 58%
    12:00 +20°C° 0 mm 2 m/S 727 mmHg 56%
    13:00 +20°C° 0 mm 2 m/S 727 mmHg 54%
    14:00 +20°C° 0 mm 2 m/S 727 mmHg 59%
    15:00 +19°C° 0 mm 2 m/S 727 mmHg 65%
    16:00 +18°C° 0 mm 2 m/S 727 mmHg 70%
    17:00 +16°C° 0 mm 2 m/S 727 mmHg 75%
    18:00 +15°C° 0 mm 2 m/S 727 mmHg 80%
    19:00 +14°C° 0 mm 2 m/S 727 mmHg 85%
    20:00 +13°C° 0 mm 2 m/S 727 mmHg 85%
    21:00 +13°C° 0 mm 2 m/S 728 mmHg 85%
    22:00 +13°C° 0 mm 2 m/S 728 mmHg 85%
    23:00 +13°C° 0 mm 1 m/S 728 mmHg 84%

    Morgen, 21 Oktober, Samstag

    Zeit Temperatur Niederschläge Wind Luftdruck Luftfeuchtigkeit
    00:00 +13°C° 0 mm 1 m/S 728 mmHg 82%
    01:00 +13°C° 0 mm 1 m/S 728 mmHg 80%
    02:00 +13°C° 0 mm 2 m/S 727 mmHg 79%
    03:00 +13°C° 0 mm 2 m/S 727 mmHg 77%
    04:00 +13°C° 0 mm 2 m/S 727 mmHg 75%
    05:00 +13°C° 0 mm 2 m/S 727 mmHg 73%
    06:00 +13°C° 0 mm 2 m/S 727 mmHg 70%
    07:00 +13°C° 0 mm 2 m/S 727 mmHg 68%
    08:00 +15°C° 0 mm 2 m/S 727 mmHg 64%
    09:00 +17°C° 0 mm 2 m/S 727 mmHg 61%
    10:00 +18°C° 0 mm 2 m/S 727 mmHg 58%
    11:00 +19°C° 0 mm 2 m/S 727 mmHg 56%
    12:00 +20°C° 0 mm 2 m/S 727 mmHg 54%
    13:00 +21°C° 0 mm 3 m/S 726 mmHg 52%
    14:00 +21°C° 0 mm 2 m/S 726 mmHg 58%
    15:00 +20°C° 0 mm 2 m/S 726 mmHg 63%
    16:00 +20°C° 0 mm 1 m/S 726 mmHg 69%
    17:00 +18°C° 0,1 mm 2 m/S 726 mmHg 74%
    18:00 +16°C° 0,1 mm 2 m/S 726 mmHg 79%
    19:00 +14°C° 0,1 mm 2 m/S 727 mmHg 85%
    20:00 +14°C° 0,8 mm 2 m/S 727 mmHg 88%
    21:00 +12°C° 0,8 mm 3 m/S 727 mmHg 90%
    22:00 +12°C° 0,8 mm 3 m/S 728 mmHg 93%
    23:00 +11°C° 1,1 mm 3 m/S 728 mmHg 94%

    übermorgen, 22 Oktober, Sonntag

    Zeit Temperatur Niederschläge Wind Luftdruck Luftfeuchtigkeit
    00:00 +11°C° 1,1 mm 3 m/S 728 mmHg 94%
    01:00 +10°C° 1,1 mm 3 m/S 728 mmHg 95%
    02:00 +10°C° 0,6 mm 3 m/S 728 mmHg 95%
    03:00 +10°C° 0,6 mm 3 m/S 727 mmHg 94%
    04:00 +10°C° 0,6 mm 3 m/S 727 mmHg 94%
    05:00 +9°C° 0,7 mm 3 m/S 727 mmHg 94%
    06:00 +9°C° 0,7 mm 2 m/S 727 mmHg 94%
    07:00 +9°C° 0,7 mm 2 m/S 727 mmHg 94%
    08:00 +9°C° 0,7 mm 3 m/S 727 mmHg 92%
    09:00 +9°C° 0,7 mm 3 m/S 727 mmHg 90%
    10:00 +9°C° 0,7 mm 3 m/S 727 mmHg 88%
    11:00 +10°C° 0,6 mm 3 m/S 727 mmHg 86%
    12:00 +10°C° 0,6 mm 3 m/S 727 mmHg 84%
    13:00 +10°C° 0,6 mm 3 m/S 727 mmHg 82%
    14:00 +10°C° 0,6 mm 3 m/S 727 mmHg 83%
    15:00 +10°C° 0,6 mm 3 m/S 727 mmHg 83%
    16:00 +10°C° 0,6 mm 3 m/S 726 mmHg 84%
    17:00 +9°C° 0,4 mm 3 m/S 727 mmHg 86%
    18:00 +8°C° 0,4 mm 3 m/S 727 mmHg 89%
    19:00 +7°C° 0,4 mm 3 m/S 728 mmHg 92%
    20:00 +7°C° 0,3 mm 3 m/S 728 mmHg 92%
    21:00 +7°C° 0,3 mm 3 m/S 728 mmHg 93%
    22:00 +7°C° 0,3 mm 3 m/S 728 mmHg 93%
    23:00 +7°C° 0,3 mm 3 m/S 728 mmHg 94%

    23 Oktober, Montag

    Zeit Temperatur Niederschläge Wind Luftdruck Luftfeuchtigkeit
    00:00 +7°C° 0,3 mm 3 m/S 728 mmHg 94%
    01:00 +6°C° 0,3 mm 4 m/S 728 mmHg 94%
    02:00 +5°C° 0,5 mm 4 m/S 728 mmHg 94%
    03:00 +5°C° 0,5 mm 4 m/S 728 mmHg 94%
    04:00 +5°C° 0,5 mm 4 m/S 728 mmHg 94%
    05:00 +5°C° 0,6 mm 4 m/S 728 mmHg 94%
    06:00 +5°C° 0,6 mm 4 m/S 728 mmHg 95%
    07:00 +6°C° 0,6 mm 4 m/S 728 mmHg 95%
    08:00 +6°C° 0,6 mm 4 m/S 728 mmHg 94%
    09:00 +6°C° 0,6 mm 4 m/S 728 mmHg 94%
    10:00 +7°C° 0,6 mm 4 m/S 728 mmHg 93%
    11:00 +7°C° 0,4 mm 4 m/S 729 mmHg 92%
    12:00 +8°C° 0,4 mm 4 m/S 729 mmHg 90%
    13:00 +8°C° 0,4 mm 4 m/S 729 mmHg 89%
    14:00 +8°C° 0,5 mm 4 m/S 729 mmHg 89%
    15:00 +9°C° 0,5 mm 3 m/S 729 mmHg 90%
    16:00 +9°C° 0,5 mm 3 m/S 729 mmHg 91%
    17:00 +9°C° 0,3 mm 3 m/S 729 mmHg 92%
    18:00 +9°C° 0,3 mm 3 m/S 730 mmHg 94%
    19:00 +8°C° 0,3 mm 3 m/S 730 mmHg 95%
    20:00 +8°C° 0,3 mm 3 m/S 730 mmHg 96%
    21:00 +8°C° 0,3 mm 3 m/S 730 mmHg 96%
    22:00 +8°C° 0,3 mm 3 m/S 730 mmHg 96%
    23:00 +8°C° 0,4 mm 3 m/S 730 mmHg 96%

    24 Oktober, Dienstag

    Zeit Temperatur Niederschläge Wind Luftdruck Luftfeuchtigkeit
    00:00 +8°C° 0,4 mm 3 m/S 730 mmHg 96%
    01:00 +8°C° 0,4 mm 3 m/S 730 mmHg 96%
    02:00 +8°C° 0,6 mm 3 m/S 730 mmHg 95%
    03:00 +8°C° 0,6 mm 3 m/S 730 mmHg 95%
    04:00 +8°C° 0,6 mm 3 m/S 729 mmHg 95%
    05:00 +8°C° 0,6 mm 3 m/S 729 mmHg 95%
    06:00 +8°C° 0,6 mm 3 m/S 729 mmHg 95%
    07:00 +8°C° 0,6 mm 3 m/S 730 mmHg 95%
    08:00 +9°C° 0,3 mm 3 m/S 730 mmHg 95%
    09:00 +10°C° 0,3 mm 2 m/S 730 mmHg 94%
    10:00 +12°C° 0,3 mm 2 m/S 730 mmHg 93%
    11:00 +12°C° 0,7 mm 2 m/S 730 mmHg 94%
    12:00 +12°C° 0,7 mm 2 m/S 730 mmHg 95%
    13:00 +12°C° 0,7 mm 2 m/S 730 mmHg 96%
    14:00 +13°C° 0,3 mm 2 m/S 730 mmHg 96%
    15:00 +13°C° 0,3 mm 2 m/S 730 mmHg 96%
    16:00 +13°C° 0,3 mm 2 m/S 731 mmHg 96%
    17:00 +13°C° 0 mm 2 m/S 731 mmHg 96%
    18:00 +12°C° 0 mm 2 m/S 731 mmHg 96%
    19:00 +12°C° 0 mm 2 m/S 732 mmHg 97%
    20:00 +12°C° 0 mm 2 m/S 732 mmHg 97%
    21:00 +12°C° 0 mm 1 m/S 732 mmHg 97%
    22:00 +12°C° 0 mm 1 m/S 732 mmHg 97%
    23:00 +11°C° 0 mm 1 m/S 732 mmHg 97%

    25 Oktober, Mittwoch

    Zeit Temperatur Niederschläge Wind Luftdruck Luftfeuchtigkeit
    00:00 +11°C° 0 mm 1 m/S 732 mmHg 97%
    01:00 +11°C° 0 mm 1 m/S 732 mmHg 97%
    02:00 +11°C° 0 mm 1 m/S 732 mmHg 96%
    03:00 +10°C° 0 mm 1 m/S 732 mmHg 96%
    04:00 +10°C° 0 mm 1 m/S 732 mmHg 96%
    05:00 +10°C° 0 mm 1 m/S 732 mmHg 96%
    06:00 +10°C° 0 mm 1 m/S 732 mmHg 95%
    07:00 +9°C° 0 mm 1 m/S 732 mmHg 95%
    08:00 +11°C° 0 mm 1 m/S 732 mmHg 92%
    09:00 +13°C° 0 mm 1 m/S 733 mmHg 90%
    10:00 +15°C° 0 mm 1 m/S 733 mmHg 87%
    11:00 +16°C° 0 mm 1 m/S 733 mmHg 83%
    12:00 +18°C° 0 mm 1 m/S 733 mmHg 79%
    13:00 +19°C° 0 mm 1 m/S 732 mmHg 76%
    14:00 +19°C° 0 mm 1 m/S 732 mmHg 78%
    15:00 +19°C° 0 mm 1 m/S 732 mmHg 81%
    16:00 +18°C° 0 mm 1 m/S 732 mmHg 83%
    17:00 +16°C° 0 mm 1 m/S 732 mmHg 85%
    18:00 +14°C° 0 mm 1 m/S 732 mmHg 87%
    19:00 +12°C° 0 mm 1 m/S 733 mmHg 90%
    20:00 +12°C° 0 mm 1 m/S 733 mmHg 89%
    21:00 +12°C° 0 mm 1 m/S 733 mmHg 88%
    22:00 +11°C° 0 mm 1 m/S 733 mmHg 88%
    23:00 +11°C° 0 mm 1 m/S 733 mmHg 87%
    Mehr zeigen